Location: Pf�ffikon
(47.2015°N, 8.7809°E)
Time: 18:43:14
(UTC+00:00)

Cosmos 1125 Rocket - Pass Details

Date: 07 June 2020
Orbit: 758 x 779 km, 74.0° (Epoch: 08 July)

Event Time Altitude Azimuth Distance (km) Brightness Sun altitude
Rises 01:37:34 0° 332° (NNW) 3,227 7.2 -13.8°
Reaches altitude 10° 01:40:01 10° 326° (NW) 2,298 6.3 -13.6°
Maximum altitude 01:44:56 44° 256° (WSW) 1,053 3.9 -13.1°
Enters shadow 01:48:52 15° 190° (S) 1,946 5.0 -12.8°
